{"data":{"norad_id":61544,"epoch":"2026-05-25T05:01:11.779104Z","epoch_age_seconds":47141,"freshness":"FRESH","line1":"1 61544U 24184N   26145.20916411  .00001253  00000+0  15200-4 0  9993","line2":"2 61544  53.1594 219.1880 0001250  73.4837 286.6318 15.69712152 92439","mean_motion":15.69712152,"eccentricity":0.000125,"inclination_deg":53.1594,"raan_deg":219.188,"arg_perigee_deg":73.4837,"mean_anomaly_deg":286.6318,"bstar":1.52e-5,"rev_number":9243,"period_min":91.736564450066,"perigee_km":358.87836002753,"apogee_km":360.56282442559,"semimajor_km":6737.8575922266,"source":"CELESTRAK","updated_at":"2026-05-25T13:38:19.399536Z"}}